LAN284 SCBA-SCTE

Flight info

Callsign LAN284
Flight time 0h 49m
Altitude 24000
Route REKOD6C REKOD T127 GENEK GENEK2A
Aircraft A320/M-SDE3FGHIRWY/LB1

Departure

Time 2026-05-07 00:55
Airport Balmaceda Airport (SCBA)

Arrival

Time 2026-05-07 01:44
Airport El Tepual International Airport (SCTE)
Time Latitude Longitude Altitude Speed Heading
2026-05-07 00:32 -45.91299 -71.69228 1746 ft 0 kts 302°
2026-05-07 00:47 -45.91306 -71.69208 1748 ft 2 kts 301°
2026-05-07 00:47 -45.91314 -71.69188 1750 ft 2 kts 290°
2026-05-07 00:47 -45.91318 -71.69165 1752 ft 2 kts 250°
2026-05-07 00:47 -45.91311 -71.69150 1752 ft 1 kts 214°
2026-05-07 00:48 -45.91310 -71.69149 1752 ft 0 kts 212°
2026-05-07 00:50 -45.91325 -71.69162 1746 ft 5 kts 213°
2026-05-07 00:50 -45.91383 -71.69213 1750 ft 9 kts 199°
2026-05-07 00:51 -45.91430 -71.69150 1752 ft 12 kts 108°
2026-05-07 00:51 -45.91450 -71.69001 1752 ft 18 kts 99°
2026-05-07 00:51 -45.91475 -71.68808 1752 ft 21 kts 101°
2026-05-07 00:51 -45.91503 -71.68588 1752 ft 24 kts 101°
2026-05-07 00:52 -45.91535 -71.68342 1750 ft 26 kts 101°
2026-05-07 00:52 -45.91570 -71.68076 1750 ft 28 kts 100°
2026-05-07 00:52 -45.91599 -71.67849 1750 ft 18 kts 99°
2026-05-07 00:52 -45.91623 -71.67656 1747 ft 20 kts 100°
2026-05-07 00:53 -45.91646 -71.67469 1752 ft 15 kts 99°
2026-05-07 00:53 -45.91659 -71.67371 1752 ft 10 kts 100°
2026-05-07 00:53 -45.91700 -71.67331 1752 ft 9 kts 192°
2026-05-07 00:53 -45.91762 -71.67353 1752 ft 7 kts 190°
2026-05-07 00:54 -45.91783 -71.67403 1749 ft 7 kts 277°
2026-05-07 00:54 -45.91780 -71.67427 1747 ft 0 kts 278°
2026-05-07 00:54 -45.91778 -71.67443 1749 ft 9 kts 279°
2026-05-07 00:54 -45.91717 -71.67936 1750 ft 90 kts 280°
2026-05-07 00:55 -45.91569 -71.69140 1764 ft 154 kts 280°
2026-05-07 00:55 -45.91378 -71.70676 2425 ft 157 kts 281°
2026-05-07 00:55 -45.91184 -71.72245 3228 ft 164 kts 280°
2026-05-07 00:55 -45.90974 -71.73947 3722 ft 184 kts 280°
2026-05-07 00:56 -45.90739 -71.75872 4101 ft 208 kts 279°
2026-05-07 00:56 -45.90472 -71.78042 4585 ft 233 kts 279°
2026-05-07 00:56 -45.90168 -71.80447 5097 ft 257 kts 282°
2026-05-07 00:56 -45.89374 -71.82784 5879 ft 268 kts 312°
2026-05-07 00:57 -45.87887 -71.84407 6849 ft 271 kts 328°
2026-05-07 00:57 -45.86277 -71.85851 7785 ft 276 kts 328°
2026-05-07 00:57 -45.84628 -71.87313 8702 ft 281 kts 327°
2026-05-07 00:57 -45.82948 -71.88808 9641 ft 287 kts 327°
2026-05-07 00:58 -45.81232 -71.90338 10378 ft 299 kts 327°
2026-05-07 00:58 -45.79398 -71.91972 10766 ft 320 kts 327°
2026-05-07 00:58 -45.77479 -71.93684 11489 ft 329 kts 327°
2026-05-07 00:58 -45.75524 -71.95429 12347 ft 333 kts 327°
2026-05-07 00:59 -45.72220 -71.98377 13761 ft 340 kts 326°
2026-05-07 00:59 -45.70202 -72.00175 14523 ft 343 kts 326°
2026-05-07 00:59 -45.68170 -72.01982 15301 ft 345 kts 326°
2026-05-07 01:00 -45.65462 -72.04389 16361 ft 347 kts 327°
2026-05-07 01:00 -45.63373 -72.06148 17158 ft 349 kts 329°
2026-05-07 01:00 -45.61235 -72.07821 17965 ft 351 kts 330°
2026-05-07 01:00 -45.59064 -72.09454 18683 ft 354 kts 330°
2026-05-07 01:01 -45.57587 -72.10550 19147 ft 354 kts 330°
2026-05-07 01:01 -45.54689 -72.12698 20057 ft 355 kts 330°
2026-05-07 01:01 -45.53236 -72.13784 20510 ft 356 kts 330°
2026-05-07 01:01 -45.51048 -72.15434 21173 ft 356 kts 329°
2026-05-07 01:02 -45.48830 -72.17119 21851 ft 357 kts 329°
2026-05-07 01:02 -45.46670 -72.18768 22491 ft 358 kts 329°
2026-05-07 01:02 -45.44474 -72.20447 23152 ft 359 kts 329°
2026-05-07 01:02 -45.42241 -72.22149 23786 ft 360 kts 329°
2026-05-07 01:03 -45.40056 -72.23805 24317 ft 361 kts 329°
2026-05-07 01:03 -45.37806 -72.25504 24851 ft 362 kts 329°
2026-05-07 01:03 -45.35541 -72.27070 25370 ft 364 kts 335°
2026-05-07 01:03 -45.33088 -72.28082 25847 ft 370 kts 345°
2026-05-07 01:04 -45.30595 -72.28758 26349 ft 370 kts 345°
2026-05-07 01:04 -45.28058 -72.29445 26874 ft 372 kts 345°
2026-05-07 01:04 -45.25516 -72.30133 27345 ft 373 kts 345°
2026-05-07 01:04 -45.22963 -72.30827 27830 ft 374 kts 345°
2026-05-07 01:05 -45.20408 -72.31523 28335 ft 374 kts 345°
2026-05-07 01:05 -45.17848 -72.32222 28799 ft 375 kts 345°
2026-05-07 01:05 -45.15283 -72.32922 29276 ft 376 kts 345°
2026-05-07 01:05 -45.12711 -72.33621 29747 ft 377 kts 345°
2026-05-07 01:06 -45.10134 -72.34320 30175 ft 378 kts 345°
2026-05-07 01:06 -45.07545 -72.35019 30534 ft 380 kts 345°
2026-05-07 01:06 -45.04939 -72.35721 30857 ft 382 kts 345°
2026-05-07 01:06 -45.02321 -72.36429 31146 ft 385 kts 345°
2026-05-07 01:07 -44.99683 -72.37143 31454 ft 387 kts 345°
2026-05-07 01:07 -44.97035 -72.37862 31787 ft 388 kts 345°
2026-05-07 01:07 -44.94386 -72.38581 32250 ft 386 kts 345°
2026-05-07 01:07 -44.91744 -72.39294 32675 ft 386 kts 345°
2026-05-07 01:08 -44.89109 -72.40006 33129 ft 385 kts 344°
2026-05-07 01:08 -44.86476 -72.40713 33528 ft 385 kts 344°
2026-05-07 01:08 -44.83842 -72.41418 33911 ft 385 kts 344°
2026-05-07 01:09 -44.78663 -72.42793 33986 ft 370 kts 344°
2026-05-07 01:09 -44.73653 -72.44132 33990 ft 365 kts 344°
2026-05-07 01:10 -44.68675 -72.45476 33987 ft 364 kts 344°
2026-05-07 01:10 -44.63695 -72.46818 33982 ft 364 kts 344°
2026-05-07 01:11 -44.58702 -72.48157 33981 ft 365 kts 344°
2026-05-07 01:11 -44.53710 -72.49484 33976 ft 365 kts 344°
2026-05-07 01:12 -44.48722 -72.50804 33972 ft 365 kts 344°
2026-05-07 01:12 -44.43733 -72.52129 33975 ft 365 kts 344°
2026-05-07 01:13 -44.38747 -72.53453 33962 ft 365 kts 345°
2026-05-07 01:13 -44.33789 -72.54772 33941 ft 365 kts 344°
2026-05-07 01:14 -44.28800 -72.56081 33950 ft 365 kts 344°
2026-05-07 01:14 -44.23804 -72.57397 33949 ft 365 kts 344°
2026-05-07 01:15 -44.18808 -72.58715 33949 ft 365 kts 345°
2026-05-07 01:15 -44.13811 -72.60024 33957 ft 365 kts 345°
2026-05-07 01:16 -44.08810 -72.61328 33953 ft 365 kts 345°
2026-05-07 01:16 -44.03812 -72.62633 33933 ft 365 kts 345°
2026-05-07 01:17 -43.98815 -72.63952 33936 ft 365 kts 345°
2026-05-07 01:17 -43.93811 -72.65261 33940 ft 366 kts 345°
2026-05-07 01:18 -43.88838 -72.66544 33942 ft 366 kts 345°
2026-05-07 01:18 -43.83829 -72.67838 33936 ft 366 kts 345°
2026-05-07 01:19 -43.78816 -72.69143 33939 ft 367 kts 345°
2026-05-07 01:19 -43.73796 -72.70448 33936 ft 367 kts 345°
2026-05-07 01:20 -43.68777 -72.71746 33938 ft 367 kts 345°
2026-05-07 01:20 -43.63754 -72.73052 33940 ft 367 kts 345°
2026-05-07 01:21 -43.58726 -72.74351 33942 ft 367 kts 345°
2026-05-07 01:21 -43.53697 -72.75643 33944 ft 368 kts 345°
2026-05-07 01:21 -43.51141 -72.76299 33963 ft 379 kts 345°
2026-05-07 01:22 -43.48549 -72.76966 33937 ft 388 kts 345°
2026-05-07 01:22 -43.43097 -72.78363 33953 ft 402 kts 345°
2026-05-07 01:23 -43.37593 -72.79700 33941 ft 406 kts 347°
2026-05-07 01:23 -43.31974 -72.80707 33947 ft 407 kts 349°
2026-05-07 01:24 -43.26341 -72.81614 33948 ft 408 kts 349°
2026-05-07 01:24 -43.20704 -72.82580 33949 ft 408 kts 348°
2026-05-07 01:25 -43.15068 -72.83594 33953 ft 408 kts 348°
2026-05-07 01:25 -43.09439 -72.84607 33934 ft 408 kts 348°
2026-05-07 01:26 -43.03805 -72.85601 33942 ft 409 kts 349°
2026-05-07 01:26 -42.98160 -72.86590 33600 ft 409 kts 349°
2026-05-07 01:26 -42.95338 -72.87088 33312 ft 409 kts 349°
2026-05-07 01:27 -42.92508 -72.87585 32377 ft 411 kts 349°
2026-05-07 01:27 -42.89665 -72.88083 31462 ft 413 kts 349°
2026-05-07 01:27 -42.86805 -72.88583 30507 ft 416 kts 350°
2026-05-07 01:27 -42.83925 -72.89084 29423 ft 419 kts 350°
2026-05-07 01:28 -42.81022 -72.89586 28319 ft 421 kts 350°
2026-05-07 01:28 -42.78107 -72.90089 27185 ft 424 kts 350°
2026-05-07 01:28 -42.75167 -72.90600 26023 ft 428 kts 350°
2026-05-07 01:28 -42.72206 -72.91118 24900 ft 430 kts 351°
2026-05-07 01:29 -42.69246 -72.91636 24050 ft 427 kts 351°
2026-05-07 01:29 -42.66313 -72.92145 23183 ft 423 kts 351°
2026-05-07 01:29 -42.63403 -72.92648 22367 ft 419 kts 351°
2026-05-07 01:29 -42.60528 -72.93147 21609 ft 414 kts 351°
2026-05-07 01:30 -42.57684 -72.93643 20888 ft 410 kts 351°
2026-05-07 01:30 -42.54902 -72.94124 20186 ft 407 kts 351°
2026-05-07 01:30 -42.52068 -72.94611 19480 ft 404 kts 350°
2026-05-07 01:30 -42.49329 -72.95084 18812 ft 401 kts 350°
2026-05-07 01:31 -42.46565 -72.95568 18141 ft 400 kts 350°
2026-05-07 01:31 -42.43813 -72.96052 17464 ft 396 kts 351°
2026-05-07 01:31 -42.41092 -72.96524 16858 ft 393 kts 351°
2026-05-07 01:31 -42.38388 -72.96987 16269 ft 390 kts 352°
2026-05-07 01:32 -42.35699 -72.97447 15705 ft 390 kts 350°
2026-05-07 01:32 -42.32992 -72.97911 15140 ft 393 kts 350°
2026-05-07 01:32 -42.30285 -72.98375 14581 ft 391 kts 351°
2026-05-07 01:32 -42.27583 -72.98838 14011 ft 392 kts 352°
2026-05-07 01:33 -42.24883 -72.99300 13378 ft 390 kts 351°
2026-05-07 01:33 -42.22194 -72.99760 12748 ft 389 kts 351°
2026-05-07 01:33 -42.19518 -73.00217 12116 ft 386 kts 352°
2026-05-07 01:33 -42.16863 -73.00670 11443 ft 384 kts 352°
2026-05-07 01:34 -42.14225 -73.01119 11001 ft 377 kts 351°
2026-05-07 01:34 -42.11681 -73.01552 10873 ft 361 kts 351°
2026-05-07 01:34 -42.09241 -73.01965 10746 ft 346 kts 352°
2026-05-07 01:34 -42.06896 -73.02362 10624 ft 334 kts 351°
2026-05-07 01:35 -42.04630 -73.02750 10472 ft 323 kts 351°
2026-05-07 01:35 -42.02421 -73.03127 10264 ft 318 kts 351°
2026-05-07 01:35 -42.00238 -73.03500 10020 ft 314 kts 351°
2026-05-07 01:35 -41.98085 -73.03866 9874 ft 310 kts 351°
2026-05-07 01:36 -41.95945 -73.04228 9745 ft 311 kts 351°
2026-05-07 01:36 -41.93790 -73.04591 9561 ft 312 kts 351°
2026-05-07 01:36 -41.91647 -73.04955 9104 ft 311 kts 351°
2026-05-07 01:36 -41.89483 -73.05327 8629 ft 312 kts 351°
2026-05-07 01:37 -41.87358 -73.05692 8143 ft 304 kts 351°
2026-05-07 01:37 -41.85281 -73.06043 7365 ft 305 kts 351°
2026-05-07 01:37 -41.83166 -73.06400 6738 ft 299 kts 352°
2026-05-07 01:37 -41.81096 -73.06751 6139 ft 302 kts 352°
2026-05-07 01:38 -41.79066 -73.07095 5531 ft 296 kts 351°
2026-05-07 01:38 -41.77017 -73.07439 4761 ft 299 kts 351°
2026-05-07 01:38 -41.74969 -73.07782 4254 ft 290 kts 351°
2026-05-07 01:38 -41.72988 -73.08115 3626 ft 286 kts 351°
2026-05-07 01:39 -41.71062 -73.08439 3519 ft 270 kts 351°
2026-05-07 01:39 -41.69249 -73.08742 3456 ft 255 kts 351°
2026-05-07 01:39 -41.67534 -73.09031 3363 ft 243 kts 351°
2026-05-07 01:39 -41.65889 -73.09308 3280 ft 233 kts 351°
2026-05-07 01:40 -41.64306 -73.09575 3175 ft 225 kts 351°
2026-05-07 01:40 -41.62779 -73.09836 3068 ft 217 kts 351°
2026-05-07 01:40 -41.61308 -73.09968 3013 ft 206 kts 358°
2026-05-07 01:40 -41.59882 -73.09959 3000 ft 203 kts
2026-05-07 01:41 -41.58472 -73.09915 2936 ft 203 kts
2026-05-07 01:41 -41.57066 -73.09865 2696 ft 201 kts
2026-05-07 01:41 -41.55666 -73.09815 2432 ft 200 kts
2026-05-07 01:41 -41.54276 -73.09766 2155 ft 199 kts
2026-05-07 01:42 -41.52904 -73.09716 1876 ft 194 kts
2026-05-07 01:42 -41.51591 -73.09669 1612 ft 184 kts
2026-05-07 01:42 -41.50348 -73.09625 1366 ft 173 kts
2026-05-07 01:42 -41.49187 -73.09583 1136 ft 163 kts 359°
2026-05-07 01:43 -41.48081 -73.09544 928 ft 156 kts 360°
2026-05-07 01:43 -41.47014 -73.09506 724 ft 150 kts
2026-05-07 01:43 -41.45992 -73.09468 513 ft 147 kts
2026-05-07 01:43 -41.44987 -73.09437 326 ft 143 kts 359°
2026-05-07 01:44 -41.44150 -73.09411 287 ft 85 kts
2026-05-07 01:44 -41.43778 -73.09396 296 ft 31 kts
2026-05-07 01:44 -41.43558 -73.09386 301 ft 21 kts
2026-05-07 01:44 -41.43475 -73.09450 302 ft 13 kts 282°
2026-05-07 01:45 -41.43475 -73.09571 304 ft 10 kts 269°
2026-05-07 01:45 -41.43424 -73.09603 301 ft 8 kts 358°
2026-05-07 01:45 -41.43374 -73.09616 301 ft 7 kts 313°
2026-05-07 01:45 -41.43369 -73.09676 301 ft 6 kts 268°
2026-05-07 01:46 -41.43368 -73.09731 301 ft 6 kts 271°
2026-05-07 01:46 -41.43368 -73.09748 301 ft 0 kts 269°